Location: Ozark
(37.5425°N, 88.7628°W)
Time: 01:59:02
(UTC+00:00)

Meteor 2-10 Rocket - Pass Details

Date: 26 January 2020
Orbit: 733 x 885 km, 81.2° (Epoch: 21 February)

Event Time Altitude Azimuth Distance (km) Brightness Sun altitude
Rises 23:45:46 0° 355° (N) 3,277 6.6 -7.1°
Reaches altitude 10° 23:48:13 10° 359° (N) 2,323 5.8 -7.6°
Maximum altitude 23:53:21 59° 79° (ENE) 866 3.5 -8.5°
Drops below altitude 10° 23:58:18 10° 159° (SSE) 2,241 5.9 -9.5°
Sets 00:00:37 0° 163° (SSE) 3,151 6.7 -9.9°
